• Join FlightAware (Why Join?)
  • Login
  • US Flag 
11:30PM EDT


 

Airport Tracker/Info


-or-


 

Live Flight TrackerFlight Track Log ✈ N75ZM ✈ 26-Jun-2013 ✈ KSGJ - MYAM / MHH

Flight Track Log - Related Links

Times and Time Zones

All times are in EDT time to prevent confusion due to time zone crossing. See the N75ZM flight status page for this flight to view local times or setup timezone preferences in your user account.

Time Position Orientation Groundspeed Altitude Reporting Facility
EDT Latitude Longitude Course Direction KTS MPH feet Rate Location/Type
09:42AM 29.9578 -81.2864 82° East 118 136 1,400  Level Jacksonville Center
09:43AM 29.9550 -81.2192 93° East 115 132 2,900 840 Climbing Jacksonville Center
09:44AM 29.9422 -81.2003 128° Southeast 110 127 3,400 840 Climbing Jacksonville Center
09:45AM 29.9253 -81.1792 133° Southeast 125 144 4,100 720 Climbing Jacksonville Center
09:45AM 29.9000 -81.1769 176° South 129 148 4,500 480 Climbing Jacksonville Center
09:46AM 29.8625 -81.1753 178° South 136 157 5,000 480 Climbing Jacksonville Center
09:47AM 29.8228 -81.1664 169° South 142 163 5,500 480 Climbing Jacksonville Center
09:49AM 29.7808 -81.1647 178° South 142 163 6,000 480 Climbing Jacksonville Center
09:50AM 29.7369 -81.1608 176° South 140 161 6,700 540 Climbing Jacksonville Center
09:51AM 29.6972 -81.1544 172° South 131 151 7,300 540 Climbing Jacksonville Center
09:52AM 29.6617 -81.1525 177° South 128 147 7,800 420 Climbing Jacksonville Center
09:53AM 29.6325 -81.1508 177° South 129 148 8,100 120 Climbing Jacksonville Center
09:54AM 29.5844 -81.1444 173° South 152 175 8,100  Level Jacksonville Center
09:55AM 29.5406 -81.1406 176° South 169 194 8,100  Level Jacksonville Center
09:56AM 29.4944 -81.1342 173° South 168 193 8,100  Level Jacksonville Center
09:57AM 29.4444 -81.1303 176° South 165 190 8,100  Level Jacksonville Center
09:58AM 29.3983 -81.1239 173° South 165 190 8,100  Level Jacksonville Center
09:59AM 29.3522 -81.1200 176° South 164 189 8,100  Level Jacksonville Center
10:00AM 29.3106 -81.1136 172° South 163 188 8,100  Level Jacksonville Center
10:01AM 29.2664 -81.1025 168° South 167 192 8,100  Level Jacksonville Center
10:02AM 29.2225 -81.0842 160° South 164 189 8,100  Level Jacksonville Center
10:04AM 29.1333 -81.0500 161° South 163 188 8,100  Level Orlando TRACON
10:05AM 29.0833 -81.0333 164° South 165 190 8,100  Level Orlando TRACON
10:06AM 29.0500 -81.0167 156° South 165 190 8,100  Level Orlando TRACON
10:07AM 29.0000 -81.0000 164° South 164 189 8,100  Level Orlando TRACON
10:08AM 28.9667 -80.9833 156° South 164 189 8,100  Level Orlando TRACON
10:09AM 28.9167 -80.9667 164° South 164 189 8,100  Level Orlando TRACON
10:10AM 28.8833 -80.9500 156° South 163 188 8,100  Level Orlando TRACON
10:11AM 28.8333 -80.9333 164° South 163 188 8,100  Level Orlando TRACON
10:12AM 28.7833 -80.9167 164° South 161 185 8,200  Climbing Orlando TRACON
10:13AM 28.7500 -80.9000 156° South 161 185 8,100 -60 Descending Orlando TRACON
10:14AM 28.7000 -80.8833 164° South 161 185 8,100  Level Orlando TRACON
10:15AM 28.6500 -80.8667 164° South 160 184 8,100  Level Orlando TRACON
10:16AM 28.6000 -80.8667 180° South 161 185 8,100  Level Orlando TRACON
10:17AM 28.5667 -80.8500 156° South 162 186 8,100  Level Orlando TRACON
10:18AM 28.5167 -80.8333 164° South 165 190 8,200  Climbing Orlando TRACON
10:19AM 28.4833 -80.8000 139° Southeast 166 191 8,100 -60 Descending Orlando TRACON
10:20AM 28.4500 -80.7833 156° South 160 184 8,100  Level Orlando TRACON
10:21AM 28.4000 -80.7667 164° South 162 186 8,100  Level Orlando TRACON
10:22AM 28.3667 -80.7500 156° South 162 186 8,100 -60 Level Orlando TRACON
10:23AM 28.2986 -80.7258 163° South 162 186 8,000  Descending Miami Center
10:24AM 28.2553 -80.7081 160° South 162 186 8,100  Climbing Miami Center
10:25AM 28.2139 -80.6947 164° South 162 186 8,100  Level Miami Center
10:26AM 28.1747 -80.6792 161° South 162 186 8,100  Level Miami Center
10:27AM 28.1333 -80.6614 159° South 162 186 8,100  Level Miami Center
10:28AM 28.0881 -80.6458 163° South 167 192 8,100 120 Level Miami Center
10:29AM 28.0511 -80.6186 147° Southeast 161 185 8,400 360 Climbing Miami Center
10:30AM 28.0269 -80.5850 129° Southeast 147 169 8,900 300 Climbing Miami Center
10:31AM 28.0025 -80.5558 134° Southeast 141 162 9,100 60 Climbing Miami Center
10:32AM 27.9722 -80.5172 132° Southeast 146 168 9,100  Level Miami Center
10:33AM 27.9400 -80.4764 132° Southeast 151 174 9,100  Level Miami Center
10:34AM 27.9094 -80.4378 132° Southeast 151 174 9,100  Level Miami Center
10:35AM 27.8853 -80.4089 133° Southeast 157 181 9,100  Level Miami Center
10:36AM 27.8508 -80.3656 132° Southeast 162 186 9,100  Level Miami Center
10:37AM 27.8164 -80.3244 133° Southeast 162 186 9,100  Level Miami Center
10:38AM 27.7858 -80.2861 132° Southeast 162 186 9,100  Level Miami Center
10:39AM 27.7533 -80.2497 135° Southeast 168 193 9,100  Level Miami Center
10:40AM 27.7250 -80.2139 132° Southeast 168 193 9,100  Level Miami Center
10:41AM 27.6947 -80.1753 132° Southeast 168 193 9,100  Level Miami Center
10:42AM 27.6747 -80.1256 114° Southeast 168 193 9,100  Level Miami Center
10:43AM 27.6822 -80.0719 81° East 156 180 9,100  Level Miami Center
10:44AM 27.6897 -80.0206 81° East 167 192 9,100  Level Miami Center
10:45AM 27.6969 -79.9714 81° East 167 192 9,100  Level Miami Center
10:46AM 27.7022 -79.9200 83° East 167 192 9,100  Level Miami Center
10:47AM 27.6806 -79.8656 114° Southeast 162 186 9,100  Level Miami Center
10:48AM 27.6606 -79.8181 115° Southeast 162 186 9,100  Level Miami Center
10:49AM 27.6406 -79.7706 115° Southeast 168 193 9,100  Level Miami Center
10:50AM 27.6228 -79.7256 114° Southeast 168 193 9,100  Level Miami Center
10:51AM 27.5989 -79.6736 117° Southeast 168 193 9,100  Level Miami Center
10:52AM 27.5767 -79.6236 117° Southeast 168 193 9,100  Level Miami Center
10:53AM 27.5567 -79.5764 116° Southeast 168 193 9,100  Level Miami Center
10:54AM 27.5386 -79.5361 117° Southeast 168 193 9,100  Level Miami Center
10:55AM 27.5208 -79.4867 112° Southeast 163 188 9,100  Level Miami Center
10:56AM 27.4967 -79.4344 118° Southeast 168 193 9,100  Level Miami Center
10:57AM 27.4767 -79.3850 114° Southeast 168 193 9,100  Level Miami Center
10:58AM 27.4525 -79.3375 120° Southeast 168 193 9,100  Level Miami Center
10:59AM 27.4344 -79.2950 116° Southeast 168 193 9,100  Level Miami Center
11:00AM 27.3994 -79.2639 142° Southeast 162 186 9,100  Level Miami Center
11:01AM 27.3475 -79.2417 159° South 170 196 9,100  Level Miami Center
11:02AM 27.3083 -79.2128 147° Southeast 163 188 9,100  Level Miami Center
11:03AM 27.2775 -79.1911 148° Southeast 163 188 9,100 -60 Level Miami Center
11:04AM 27.2342 -79.1600 147° Southeast 163 188 9,000  Descending Miami Center
11:05AM 27.2011 -79.1242 136° Southeast 168 193 9,100  Climbing Miami Center
11:06AM 27.1853 -79.0703 108° East 157 181 9,100  Level Miami Center
11:07AM 27.1672 -79.0208 112° Southeast 162 186 9,100  Level Miami Center
11:08AM 27.1511 -78.9739 111° Southeast 162 186 9,100  Level Miami Center
11:09AM 27.1333 -78.9200 110° East 173 199 9,100  Level Miami Center
11:10AM 27.1192 -78.8706 108° East 168 193 9,100  Level Miami Center
11:11AM 27.1033 -78.8236 111° Southeast 168 193 9,100  Level Miami Center
11:12AM 27.0808 -78.7719 116° Southeast 168 193 9,100  Level Miami Center
11:13AM 27.0689 -78.7297 108° East 168 193 9,100  Level Miami Center
11:14AM 27.0531 -78.6711 107° East 168 193 9,100 -60 Level Miami Center
11:15AM 27.0369 -78.6197 109° East 168 193 9,000 -60 Descending Miami Center
11:16AM 27.0228 -78.5728 109° East 168 193 9,000  Level Miami Center
11:17AM 27.0128 -78.5447 112° Southeast 168 193 9,000  Level Miami Center
11:19AM 27.0128 -78.5447 222° Southwest 168 193 9,000  Level Miami Center
11:21AM 27.0128 -78.5447 222° Southwest 168 193 9,000  Level Miami Center
11:22AM 26.9175 -78.2753 112° Southeast 168 193 9,000  Level Miami Center
11:23AM 26.9033 -78.2264 108° East 161 185 9,100  Climbing Miami Center
11:24AM 26.8933 -78.1794 103° East 161 185 9,000 -540 Descending Miami Center
11:25AM 26.8603 -78.1281 126° Southeast 161 185 8,100  Descending Miami Center
11:26AM 26.8439 -78.0767 110° East 161 185 9,000 420 Climbing Miami Center
11:27AM 26.8278 -78.0228 109° East 161 185 9,000 -960 Level Miami Center
11:28AM 26.8094 -77.9458 105° East 161 185 7,100 -960 Descending Miami Center
11:29AM 26.7911 -77.9131 122° Southeast 166 191 7,100  Level Miami Center
11:30AM 26.7747 -77.8617 110° East 161 185 7,100  Level Miami Center
11:31AM 26.7583 -77.8128 111° Southeast 161 185 7,100  Level Miami Center
11:32AM 26.7419 -77.7683 112° Southeast 161 185 7,100 900 Level Miami Center
11:33AM 26.7233 -77.6983 107° East 172 198 9,000 900 Climbing Miami Center
11:34AM 26.7069 -77.6611 116° Southeast 172 198 9,000 -960 Level Miami Center
11:35AM 26.6906 -77.6097 110° East 165 190 7,100 -1,920 Descending Miami Center